[[{"header":{"parameterUnit":"m.s-1","parameterCategory":2,"la1":30.2991,"la2":30.254,"lo1":-89.0895,"lo2":-89.0444,"dx":0.0017,"dy":0.0017,"nx":28,"ny":28,"refTime":"2022-11-15T09:00:00:Z","depth":"0","parameterNumber":2,"parameterNumberName":"U-component_of_CURRENTS"},"data":[0,0,0,0,0,0,0,0,0,0,0,0,0,0,0,0,0,0,0,0,0,0,0,0,0,0,0,0,0,0,0,0,0,0,0,0,0,0,0,0,0,0,0,0,0,0,0,0,0,0,0,0,0,0,0,0,0,0,0.4185,0.4186,0,0.4243,0.4244,0.4244,0.4236,0.4236,0.4235,0.4234,0.4225,0.4225,0.4225,0,0,0,0,0,0,0,0,0,0,0,0,0,0.4103,0.4104,0.4185,0.4186,0.4187,0.4243,0.4244,0.4244,0.4236,0.4236,0.4235,0.4234,0.4225,0.4225,0.4225,0,0,0,0,0,0,0,0,0,0,0,0,0,0.4144,0.4105,0.4185,0.4193,0.4195,0.4243,0.4244,0.4244,0.4236,0.4235,0.4235,0.4234,0.4225,0.4225,0.4225,0.4246,0,0,0.4227,0.4227,0,0,0,0,0,0,0,0,0.4142,0.4146,0.4191,0.4193,0.4195,0.4235,0.4212,0.4243,0.4237,0.4216,0.4234,0.4233,0.4225,0.4226,0.4234,0.4246,0.4245,0.4227,0.4227,0.4227,0.4227,0,0,0,0,0,0,0,0.4139,0.4144,0.4204,0.4192,0.4195,0.4207,0.4211,0.4218,0.4221,0.4218,0.4219,0.4232,0.4225,0.4233,0.4233,0.4245,0.4227,0.4227,0.4228,0.4228,0.4306,0.4308,0,0,0,0,0,0,0.4139,0.4142,0.4202,0.4206,0.417,0.4209,0.4213,0.422,0.4222,0.4223,0.4232,0.4231,0.4233,0.4233,0.4233,0.4283,0.4227,0.4228,0.4228,0.4304,0.4306,0.4308,0,0,0,0,0,0,0.4137,0.4144,0.42,0.4179,0.4187,0.4211,0.4219,0.4221,0.4234,0.4235,0.4233,0.4243,0.4232,0.4232,0.4254,0.4282,0.4228,0.4228,0.4302,0.4305,0.4307,0.4367,0,0,0,0,0,0,0.4134,0.4142,0.4147,0.4179,0.4189,0.4233,0.422,0.4223,0.4246,0.4244,0.4244,0.4242,0.4232,0.4253,0.4254,0.4281,0.4229,0.43,0.4303,0.4307,0.4363,0.4372,0.4379,0,0,0,0,0,0.4131,0.414,0.4146,0.4154,0.4193,0.4235,0.4241,0.4252,0.4247,0.4258,0.4264,0.4242,0.4275,0.4255,0.4256,0.4284,0.4298,0.4302,0.4306,0.436,0.437,0.4379,0,0,0,0,0,0,0.4096,0.4141,0.4149,0.4167,0.4202,0.4235,0.4251,0.426,0.4275,0.4275,0.4263,0.4263,0.4301,0.4284,0.4262,0.4318,0.4284,0.4289,0.4325,0.4334,0.4342,0.437,0.4229,0,0,0,0,0,0.4095,0.4117,0.4159,0.4174,0.4196,0.4225,0.4243,0.4258,0.4279,0.4284,0.4287,0.4295,0.432,0.4318,0.4338,0.4358,0.4375,0.4378,0.4386,0.4393,0.4418,0.4465,0.448,0.4322,0.4322,0.4322,0,0,0.4084,0.4114,0.4123,0.4169,0.4197,0.424,0.4233,0.4272,0.4303,0.4282,0.4318,0.4331,0.4337,0.4372,0.4385,0.4356,0.4449,0.4398,0.4404,0.4425,0.4471,0.4487,0.45,0.4325,0.4324,0.4324,0,0,0.4081,0.4105,0.4126,0.4164,0.4219,0.4251,0.4266,0.4311,0.4326,0.4366,0.437,0.4403,0.4417,0.4438,0.4447,0.4511,0.4503,0.4509,0.4556,0.4601,0.4615,0.4627,0.4675,0.4691,0.4497,0.4497,0.4497,0,0.4066,0.4101,0.4138,0.4176,0.4213,0.4259,0.4298,0.4332,0.4376,0.4401,0.4383,0.4455,0.4456,0.4515,0.4542,0.4531,0.4555,0.4514,0.4612,0.4625,0.4636,0.4682,0.4699,0.45,0.45,0.45,0.4499,0,0.4087,0.412,0.4141,0.4209,0.4252,0.4297,0.4359,0.4402,0.4429,0.4462,0.4528,0.4542,0.4581,0.4588,0.4585,0.4669,0.4661,0.4628,0.4586,0.4656,0.47,0.4716,0.4505,0.4504,0.4503,0.4502,0,0,0.4047,0.4136,0.4145,0.4177,0.4276,0.431,0.4389,0.4468,0.4519,0.4562,0.4627,0.4675,0.4689,0.4704,0.4704,0.4743,0.4844,0.4723,0.4724,0.477,0.4958,0.4981,0.5,0.4825,0.4828,0.483,0.4958,0,0.4055,0.4113,0.417,0.4239,0.4279,0.4361,0.443,0.4509,0.4569,0.4646,0.4689,0.4752,0.4728,0.4754,0.4796,0.4849,0.489,0.4814,0.4886,0.4889,0.4899,0.5021,0.4988,0.5102,0.4974,0.4976,0.4978,0,0.4059,0.4103,0.4158,0.4256,0.4283,0.4337,0.446,0.4524,0.4654,0.4707,0.4784,0.4826,0.4924,0.4876,0.4997,0.495,0.4969,0.499,0.4994,0.5011,0.4944,0.5012,0.5136,0.5103,0.5003,0.5001,0.4999,0,0.3999,0.4094,0.4133,0.4167,0.4288,0.4335,0.4407,0.4534,0.4604,0.4749,0.4832,0.4927,0.5003,0.5048,0.5116,0.5061,0.5248,0.5162,0.5197,0.5198,0.5185,0.518,0.5287,0.5241,0.5241,0.524,0.524,0,0.3979,0.4012,0.4105,0.4125,0.4193,0.4289,0.4373,0.4474,0.4622,0.4726,0.4848,0.4961,0.5053,0.5166,0.5179,0.528,0.5297,0.5258,0.5253,0.5206,0.5201,0.518,0.5125,0.5245,0.5244,0.5243,0.5242,0,0.3902,0.3962,0.4011,0.4124,0.4159,0.4202,0.4346,0.4407,0.4578,0.4727,0.4788,0.502,0.5194,0.5285,0.5397,0.538,0.5342,0.546,0.5413,0.5401,0.5366,0.5314,0.5109,0.4939,0.5517,0.5519,0.552,0,0.3863,0.3878,0.3979,0.4,0.4048,0.4126,0.4182,0.4357,0.4448,0.4757,0.4837,0.5085,0.5256,0.5479,0.5538,0.5616,0.5413,0.5579,0.5461,0.5418,0.5355,0.5029,0.4874,0.5466,0.5467,0.5467,0.5468,0,0.3792,0.3827,0.3863,0.3911,0.3959,0.4024,0.4134,0.4204,0.4433,0.4606,0.4857,0.5029,0.5343,0.5476,0.563,0.5646,0.5382,0.5593,0.5563,0.5366,0.5001,0.4818,0.5324,0.5474,0.5473,0.5473,0.5473,0.5472,0.3727,0.373,0.3772,0.3808,0.3853,0.3905,0.3916,0.4083,0.4235,0.4473,0.4734,0.4983,0.5362,0.5613,0.558,0.5631,0.5415,0.5551,0.5506,0.5188,0.4976,0.5511,0.5637,0.5638,0.5638,0.5638,0.5639,0,0.3632,0.3641,0.3667,0.3689,0.3676,0.3765,0.386,0.3869,0.3994,0.4342,0.4557,0.5002,0.5247,0.5477,0.5738,0.5626,0.5238,0.5501,0.5073,0.493,0.5489,0.545,0.5523,0.5523,0.5523,0.5523,0.5523,0.5523,0.3577,0.355,0.3563,0.3503,0.3514,0.347,0.349,0.3566,0.378,0.4072,0.4368,0.4644,0.5257,0.5728,0.58,0.5649,0.5191,0.5002,0.4836,0.5364,0.5364,0.5363,0.5318,0.5362,0.5362,0.4104,0.4095,0.4089]},{"header":{"parameterUnit":"m.s-1","parameterCategory":2,"la1":30.2991,"la2":30.254,"lo1":-89.0895,"lo2":-89.0444,"dx":0.0017,"dy":0.0017,"nx":28,"ny":28,"refTime":"2022-11-15T09:00:00:Z","depth":"0","parameterNumber":3,"parameterNumberName":"V-component_of_CURRENTS"},"data":[0,0,0,0,0,0,0,0,0,0,0,0,0,0,0,0,0,0,0,0,0,0,0,0,0,0,0,0,0,0,0,0,0,0,0,0,0,0,0,0,0,0,0,0,0,0,0,0,0,0,0,0,0,0,0,0,0,0,0.0137,0.0136,0,0.0029,0.0028,0.0026,-0.005,-0.0051,-0.0051,-0.0051,-0.021,-0.0213,-0.0217,0,0,0,0,0,0,0,0,0,0,0,0,0,0.0175,0.0175,0.0137,0.0136,0.0135,0.0029,0.0028,0.0026,-0.005,-0.0051,-0.0051,-0.0052,-0.0208,-0.0213,-0.0218,0,0,0,0,0,0,0,0,0,0,0,0,0,0.012,0.0176,0.0137,0.0086,0.0081,0.003,0.0027,0.0025,-0.005,-0.0051,-0.0051,-0.0052,-0.0207,-0.0213,-0.0218,-0.0243,0,0,-0.0236,-0.0239,0,0,0,0,0,0,0,0,0.0123,0.0118,0.0095,0.009,0.0083,0.0005,-0.0017,-0.0066,-0.005,-0.0003,-0.0051,-0.0052,-0.014,-0.0152,-0.0174,-0.0251,-0.0258,-0.0237,-0.024,-0.0243,-0.0244,0,0,0,0,0,0,0,0.0127,0.0122,0.0091,0.0094,0.0087,0.0034,0.0026,-0.0027,-0.0071,-0.0008,-0.0013,-0.002,-0.0144,-0.0168,-0.0178,-0.026,-0.0236,-0.0242,-0.0245,-0.0247,-0.0373,-0.0373,0,0,0,0,0,0,0.0152,0.0126,0.0095,0.0089,0.0106,0.0034,0.0025,0.0028,-0.0069,-0.0083,-0.0019,-0.0023,-0.0158,-0.0172,-0.0184,-0.0207,-0.0243,-0.0248,-0.0251,-0.0374,-0.0373,-0.0373,0,0,0,0,0,0,0.0154,0.0151,0.0099,0.0106,0.0096,0.0035,0.0038,0.0026,0.0006,-0.0077,-0.0093,-0.0027,-0.0159,-0.0176,-0.0223,-0.0214,-0.0251,-0.0256,-0.0374,-0.0374,-0.0373,-0.0261,0,0,0,0,0,0,0.0156,0.0152,0.0162,0.0109,0.0097,0.0082,0.0039,0.0025,0.0003,-0.0003,-0.0089,-0.0104,-0.0161,-0.0214,-0.0229,-0.0223,-0.026,-0.0374,-0.0374,-0.0373,-0.0265,-0.0257,-0.0251,0,0,0,0,0,0.0157,0.0181,0.0163,0.0159,0.0113,0.0083,0.0072,0.0024,0.0004,0.0002,-0.0057,-0.0102,-0.0223,-0.0218,-0.0236,-0.0232,-0.0374,-0.0374,-0.0373,-0.0268,-0.0259,-0.0251,0,0,0,0,0,0,0.0203,0.0174,0.0153,0.0167,0.0132,0.0072,0.0069,0.0034,-0.0014,-0.0017,-0.0099,-0.0118,-0.0157,-0.021,-0.0203,-0.0269,-0.0307,-0.031,-0.0221,-0.0213,-0.0205,-0.0165,-0.0265,0,0,0,0,0,0.0219,0.0228,0.0185,0.0195,0.0185,0.0128,0.011,0.008,0.0032,0.001,-0.005,-0.0114,-0.017,-0.0202,-0.0257,-0.0292,-0.0345,-0.0302,-0.0295,-0.0288,-0.0268,-0.0345,-0.0342,-0.0372,-0.0372,-0.0372,0,0,0.0239,0.0224,0.0228,0.0204,0.0175,0.0176,0.0116,0.0103,0.0098,0.0001,-0.0022,-0.0088,-0.0173,-0.0211,-0.0233,-0.0254,-0.0308,-0.0288,-0.0281,-0.0265,-0.0344,-0.0341,-0.0338,-0.0372,-0.0372,-0.0372,0,0,0.0289,0.0273,0.0298,0.0277,0.0247,0.0217,0.0221,0.0169,0.014,0.011,0.0038,-0.002,-0.01,-0.0163,-0.0204,-0.0192,-0.0264,-0.0211,-0.0144,-0.0218,-0.0216,-0.0214,-0.0275,-0.028,-0.021,-0.0209,-0.0209,0,0.031,0.034,0.0298,0.0313,0.0314,0.0246,0.0276,0.0233,0.0171,0.0153,0.0122,0.0001,-0.0077,-0.013,-0.0128,-0.0174,-0.0219,-0.0167,-0.0206,-0.0206,-0.0207,-0.027,-0.0277,-0.0204,-0.0205,-0.0205,-0.0206,0,0.0376,0.0395,0.041,0.0413,0.0407,0.0419,0.0371,0.035,0.0312,0.0265,0.021,0.0103,0.0032,-0.0008,-0.0064,-0.0106,-0.0138,-0.0184,-0.0221,-0.0197,-0.0265,-0.0274,-0.0196,-0.0198,-0.02,-0.0201,0,0,0.0434,0.0455,0.0459,0.0487,0.0466,0.0475,0.0469,0.0448,0.045,0.0366,0.0358,0.024,0.0179,0.0128,0.0038,-0.003,-0.0085,-0.0094,-0.0101,-0.0139,-0.0235,-0.0243,-0.0255,-0.0134,-0.0135,-0.0136,-0.028,0,0.0497,0.0565,0.0555,0.0621,0.0657,0.0607,0.0612,0.0578,0.0533,0.05,0.0376,0.0333,0.023,0.0202,0.0115,-0.0028,-0.0104,-0.0041,-0.0265,-0.0271,-0.0271,-0.0264,-0.0216,-0.0338,-0.0289,-0.0291,-0.0292,0,0.0571,0.0608,0.0695,0.0741,0.0753,0.078,0.0793,0.0787,0.0711,0.0663,0.0586,0.0497,0.0384,0.0295,0.0065,0.0114,-0.0043,-0.0163,-0.0173,-0.0221,-0.0297,-0.0359,-0.0358,-0.0657,-0.0307,-0.0306,-0.0305,0,0.0651,0.0711,0.0795,0.0807,0.0839,0.087,0.0883,0.0844,0.0861,0.0775,0.0776,0.0614,0.0555,0.0341,0.01,0.0081,-0.0147,-0.0219,-0.0378,-0.0381,-0.0404,-0.0407,-0.0704,-0.0383,-0.0383,-0.0382,-0.0382,0,0.0731,0.0791,0.0842,0.0884,0.0984,0.097,0.1055,0.1018,0.1004,0.1054,0.0876,0.0881,0.0568,0.0407,0.0154,-0.0121,-0.0117,-0.0355,-0.0416,-0.0364,-0.0361,-0.0674,-0.0843,-0.0388,-0.0386,-0.0385,-0.0384,0,0.0803,0.0832,0.0933,0.0998,0.103,0.1101,0.1187,0.1233,0.1192,0.1254,0.1243,0.1083,0.087,0.0552,0.021,-0.0028,-0.0477,-0.0413,-0.0318,-0.0365,-0.0793,-0.0955,-0.13,-0.1446,-0.0618,-0.0619,-0.062,0,0.0843,0.0908,0.1028,0.1101,0.114,0.1243,0.1313,0.132,0.1391,0.1401,0.1448,0.1275,0.1196,0.068,0.0214,-0.0233,-0.0521,-0.0485,-0.0527,-0.0803,-0.1031,-0.1148,-0.1254,-0.0524,-0.0524,-0.0524,-0.0524,0,0.0925,0.0974,0.1058,0.1213,0.1318,0.1443,0.1558,0.1655,0.1691,0.1753,0.182,0.1771,0.1282,0.0863,0.0238,-0.0087,-0.0688,-0.0499,-0.0822,-0.1004,-0.1115,-0.1286,-0.0445,-0.0524,-0.0524,-0.0524,-0.0524,-0.0524,0.0985,0.1066,0.119,0.1339,0.1469,0.1644,0.1778,0.1915,0.2081,0.2239,0.2157,0.2181,0.1534,0.0686,0.0158,-0.0712,-0.0747,-0.0951,-0.1132,-0.1229,-0.1356,-0.0499,-0.0622,-0.0623,-0.0623,-0.0624,-0.0624,0,0.1058,0.1158,0.1303,0.1496,0.1659,0.171,0.1942,0.2105,0.2347,0.2527,0.2614,0.2405,0.1567,0.0709,-0.0479,-0.1172,-0.1447,-0.1562,-0.174,-0.1826,-0.1093,-0.1073,-0.1253,-0.1252,-0.1252,-0.1252,-0.1251,-0.1251,0.1103,0.1254,0.1339,0.1628,0.1769,0.2014,0.2166,0.2417,0.2628,0.2922,0.3036,0.3056,0.2494,0.0189,-0.1393,-0.1802,-0.2283,-0.2407,-0.2683,-0.2204,-0.2161,-0.212,-0.2143,-0.2544,-0.2546,-0.3305,-0.3313,-0.3319]}],[{"header":{"parameterUnit":"m.s-1","parameterCategory":2,"la1":30.2991,"la2":30.254,"lo1":-89.0895,"lo2":-89.0444,"dx":0.0017,"dy":0.0017,"nx":28,"ny":28,"refTime":"2022-11-15T09:00:00:Z","depth":"2","parameterNumber":2,"parameterNumberName":"U-component_of_CURRENTS"},"data":[0,0,0,0,0,0,0,0,0,0,0,0,0,0,0,0,0,0,0,0,0,0,0,0,0,0,0,0,0,0,0,0,0,0,0,0,0,0,0,0,0,0,0,0,0,0,0,0,0,0,0,0,0,0,0,0,0,0,0.4018,0.4019,0,0.408,0.408,0.4081,0.408,0.4079,0.4079,0.4078,0.4076,0.4077,0.4077,0,0,0,0,0,0,0,0,0,0,0,0,0,0.392,0.3921,0.4018,0.4019,0.402,0.408,0.408,0.4081,0.408,0.4079,0.4079,0.4078,0.4076,0.4076,0.4077,0,0,0,0,0,0,0,0,0,0,0,0,0,0.3966,0.3922,0.4017,0.403,0.4032,0.408,0.408,0.4081,0.408,0.4079,0.4079,0.4078,0.4076,0.4076,0.4077,0.4093,0,0,0.4079,0.4079,0,0,0,0,0,0,0,0,0.3964,0.3969,0.4027,0.4029,0.4032,0.4075,0.4045,0.4083,0.408,0.4057,0.4078,0.4078,0.4073,0.4074,0.4082,0.4093,0.4093,0.4079,0.4079,0.4079,0.4079,0,0,0,0,0,0,0,0.396,0.3967,0.4038,0.4028,0.4031,0.404,0.4045,0.4053,0.4064,0.4059,0.406,0.4074,0.4073,0.4081,0.4082,0.4093,0.4079,0.4079,0.4079,0.408,0.416,0.4162,0,0,0,0,0,0,0.3961,0.3964,0.4036,0.404,0.4,0.4043,0.4048,0.4058,0.4065,0.4067,0.4075,0.4074,0.4081,0.4081,0.4082,0.4136,0.4079,0.408,0.408,0.4158,0.416,0.4162,0,0,0,0,0,0,0.3959,0.3967,0.4034,0.4007,0.4017,0.4045,0.4057,0.406,0.4077,0.4078,0.4078,0.409,0.408,0.4081,0.4105,0.4135,0.408,0.408,0.4156,0.4159,0.4161,0.4223,0,0,0,0,0,0,0.3956,0.3965,0.3975,0.4007,0.4018,0.4069,0.4058,0.4062,0.4089,0.4088,0.4091,0.409,0.408,0.4104,0.4105,0.4134,0.4081,0.4154,0.4157,0.416,0.4219,0.4228,0.4235,0,0,0,0,0,0.3952,0.3965,0.3974,0.3984,0.4029,0.407,0.4076,0.4091,0.409,0.4103,0.4111,0.409,0.4127,0.4106,0.4107,0.4137,0.4152,0.4156,0.416,0.4215,0.4226,0.4235,0,0,0,0,0,0,0.392,0.3968,0.3978,0.4003,0.4039,0.4071,0.4091,0.4101,0.4119,0.4122,0.4112,0.4112,0.4152,0.4136,0.4114,0.4172,0.4137,0.4142,0.4179,0.4189,0.4197,0.4223,0.4081,0,0,0,0,0,0.3922,0.3947,0.3991,0.4011,0.4034,0.4065,0.4085,0.4101,0.4123,0.4131,0.4135,0.4146,0.417,0.4171,0.419,0.4212,0.4228,0.4233,0.4242,0.4249,0.4272,0.4319,0.4333,0.4176,0.4176,0.4176,0,0,0.3914,0.3945,0.3958,0.4007,0.4037,0.4079,0.4074,0.4116,0.4148,0.4128,0.4168,0.4182,0.4188,0.4224,0.4239,0.421,0.4304,0.4254,0.4259,0.428,0.4325,0.434,0.4354,0.4178,0.4178,0.4178,0,0,0.3914,0.3944,0.3968,0.4005,0.4062,0.4094,0.411,0.4156,0.4173,0.4215,0.4221,0.4256,0.4271,0.4292,0.4301,0.4365,0.4358,0.4365,0.4413,0.4457,0.4471,0.4483,0.4529,0.4545,0.4354,0.4354,0.4354,0,0.3904,0.3942,0.398,0.4019,0.4056,0.4104,0.4143,0.4177,0.4223,0.4249,0.4235,0.4308,0.431,0.4368,0.4396,0.4385,0.441,0.437,0.4468,0.448,0.4492,0.4536,0.4552,0.4358,0.4357,0.4357,0.4356,0,0.3926,0.3963,0.3985,0.4054,0.4097,0.4143,0.4203,0.4249,0.4279,0.4312,0.4381,0.4395,0.4436,0.4443,0.444,0.4524,0.4517,0.4484,0.4442,0.4511,0.4554,0.457,0.4363,0.4361,0.436,0.4359,0,0,0.3891,0.3981,0.3992,0.4024,0.4123,0.4156,0.4235,0.4314,0.4366,0.4411,0.4477,0.4526,0.4543,0.4558,0.4559,0.4597,0.4698,0.458,0.458,0.4624,0.481,0.4823,0.4842,0.468,0.4683,0.4686,0.4809,0,0.39,0.3961,0.4017,0.4087,0.4127,0.4208,0.4276,0.4355,0.4416,0.4494,0.4538,0.4602,0.4581,0.461,0.4651,0.4703,0.4743,0.4669,0.4738,0.4741,0.4743,0.4862,0.4486,0.4566,0.4825,0.4827,0.4829,0,0.3906,0.395,0.4008,0.4105,0.4133,0.4187,0.431,0.4373,0.4502,0.4556,0.4635,0.4677,0.4775,0.4729,0.4848,0.4803,0.4823,0.4843,0.4846,0.4853,0.4785,0.4538,0.4585,0.4856,0.4853,0.4852,0.485,0,0.3849,0.3945,0.3986,0.402,0.414,0.4188,0.426,0.4386,0.4455,0.46,0.4683,0.4778,0.4854,0.4898,0.4966,0.4913,0.5093,0.501,0.5036,0.5036,0.473,0.4699,0.5087,0.5087,0.5087,0.5086,0.5086,0,0.3831,0.3866,0.396,0.3982,0.4051,0.4146,0.4232,0.4332,0.4479,0.458,0.4702,0.4811,0.4905,0.5014,0.5027,0.512,0.5142,0.5094,0.5088,0.4743,0.4714,0.4963,0.4947,0.5091,0.509,0.5089,0.5088,0,0.376,0.382,0.3871,0.3984,0.402,0.4065,0.4209,0.427,0.4439,0.4585,0.4646,0.4871,0.504,0.5129,0.5237,0.5216,0.5279,0.5289,0.4899,0.4848,0.5167,0.5153,0.533,0.5332,0.5333,0.5335,0.5336,0,0.3724,0.3741,0.3843,0.3865,0.3915,0.3995,0.4051,0.4224,0.4313,0.4613,0.469,0.4931,0.5088,0.5299,0.5303,0.5363,0.5379,0.5033,0.4871,0.5227,0.5202,0.5184,0.5168,0.4472,0.4466,0.4461,0.4457,0,0.3657,0.3694,0.373,0.3781,0.3831,0.3895,0.4005,0.4071,0.4295,0.4459,0.4698,0.4856,0.5109,0.5048,0.5171,0.5127,0.4999,0.4943,0.5407,0.4501,0.4437,0.4407,0.4414,0.4413,0.4418,0.4421,0.4423,0.4425,0.3596,0.36,0.3643,0.3682,0.3728,0.3777,0.3787,0.3935,0.4074,0.4256,0.4517,0.4626,0.4752,0.4773,0.467,0.4585,0.491,0.4661,0.4666,0.4679,0.4591,0.4536,0.4514,0.4519,0.4523,0.4527,0.453,0,0.3497,0.3515,0.3542,0.3565,0.3543,0.3642,0.3732,0.3699,0.3792,0.4026,0.4184,0.3958,0.4011,0.4104,0.395,0.4012,0.3851,0.3822,0.3559,0.3613,0.3658,0.3504,0.3146,0.314,0.3135,0.313,0,0,0.3442,0.3413,0.3425,0.3361,0.3382,0.3318,0.3335,0.3336,0.3442,0.3455,0.3501,0.3821,0.4049,0.3528,0.3514,0.3304,0.3398,0.3173,0.431,0.4059,0.4095,0.4207,0.4044,0,0,0,0,0]},{"header":{"parameterUnit":"m.s-1","parameterCategory":2,"la1":30.2991,"la2":30.254,"lo1":-89.0895,"lo2":-89.0444,"dx":0.0017,"dy":0.0017,"nx":28,"ny":28,"refTime":"2022-11-15T09:00:00:Z","depth":"2","parameterNumber":3,"parameterNumberName":"V-component_of_CURRENTS"},"data":[0,0,0,0,0,0,0,0,0,0,0,0,0,0,0,0,0,0,0,0,0,0,0,0,0,0,0,0,0,0,0,0,0,0,0,0,0,0,0,0,0,0,0,0,0,0,0,0,0,0,0,0,0,0,0,0,0,0,0.0198,0.0197,0,0.009,0.0089,0.0088,0.0012,0.0011,0.0011,0.001,-0.0145,-0.0149,-0.0153,0,0,0,0,0,0,0,0,0,0,0,0,0,0.0241,0.0241,0.0198,0.0197,0.0195,0.0091,0.0089,0.0087,0.0012,0.0011,0.0011,0.001,-0.0144,-0.0148,-0.0153,0,0,0,0,0,0,0,0,0,0,0,0,0,0.0185,0.0241,0.0198,0.0147,0.0141,0.0091,0.0089,0.0087,0.0012,0.0011,0.0011,0.001,-0.0142,-0.0148,-0.0154,-0.0177,0,0,-0.0171,-0.0173,0,0,0,0,0,0,0,0,0.0188,0.0183,0.0155,0.015,0.0144,0.0066,0.0047,-0.0003,0.0012,0.0058,0.001,0.001,-0.0077,-0.0088,-0.011,-0.0185,-0.0191,-0.0172,-0.0175,-0.0177,-0.0179,0,0,0,0,0,0,0,0.0192,0.0186,0.0153,0.0154,0.0148,0.0097,0.0089,0.0037,-0.0008,0.0054,0.0049,0.0041,-0.0081,-0.0104,-0.0114,-0.0194,-0.0171,-0.0176,-0.018,-0.0182,-0.0306,-0.0306,0,0,0,0,0,0,0.0216,0.0191,0.0156,0.015,0.0168,0.0097,0.0088,0.009,-0.0006,-0.002,0.0042,0.0038,-0.0094,-0.0107,-0.012,-0.0143,-0.0177,-0.0183,-0.0186,-0.0306,-0.0306,-0.0305,0,0,0,0,0,0,0.0218,0.0215,0.016,0.0169,0.0159,0.0098,0.01,0.0088,0.0067,-0.0015,-0.003,0.0034,-0.0095,-0.0112,-0.0158,-0.015,-0.0185,-0.019,-0.0306,-0.0306,-0.0306,-0.0196,0,0,0,0,0,0,0.022,0.0216,0.0224,0.0171,0.0159,0.0143,0.01,0.0086,0.0064,0.0058,-0.0027,-0.0042,-0.0097,-0.0149,-0.0164,-0.0159,-0.0195,-0.0306,-0.0306,-0.0306,-0.02,-0.0192,-0.0186,0,0,0,0,0,0.0222,0.0244,0.0225,0.0221,0.0174,0.0144,0.0133,0.0085,0.0064,0.0062,0.0005,-0.0039,-0.0159,-0.0154,-0.0171,-0.0167,-0.0306,-0.0306,-0.0306,-0.0203,-0.0194,-0.0186,0,0,0,0,0,0,0.0266,0.0236,0.0215,0.0227,0.0192,0.0132,0.0129,0.0094,0.0047,0.0044,-0.0037,-0.0056,-0.0094,-0.0146,-0.0138,-0.0203,-0.024,-0.0243,-0.0157,-0.0149,-0.0142,-0.0102,-0.02,0,0,0,0,0,0.0281,0.029,0.0246,0.0254,0.0244,0.0187,0.0169,0.0139,0.0092,0.007,0.0011,-0.0052,-0.0107,-0.0138,-0.0192,-0.0226,-0.0278,-0.0236,-0.0229,-0.0223,-0.0203,-0.0279,-0.0276,-0.0305,-0.0305,-0.0305,0,0,0.03,0.0285,0.0289,0.0263,0.0234,0.0235,0.0175,0.0161,0.0156,0.0061,0.0038,-0.0027,-0.011,-0.0146,-0.0169,-0.0189,-0.0243,-0.0222,-0.0216,-0.02,-0.0278,-0.0275,-0.0273,-0.0304,-0.0304,-0.0304,0,0,0.0348,0.0331,0.0355,0.0334,0.0304,0.0275,0.0277,0.0226,0.0197,0.0167,0.0096,0.0039,-0.0039,-0.01,-0.014,-0.0128,-0.02,-0.0147,-0.0082,-0.0156,-0.0153,-0.0152,-0.0212,-0.0217,-0.0146,-0.0146,-0.0146,0,0.0368,0.0396,0.0355,0.0369,0.037,0.0302,0.0331,0.0289,0.0227,0.0209,0.0178,0.0059,-0.0016,-0.0069,-0.0066,-0.0111,-0.0156,-0.0105,-0.0144,-0.0144,-0.0145,-0.0207,-0.0213,-0.0141,-0.0141,-0.0142,-0.0142,0,0.0432,0.045,0.0464,0.0466,0.0461,0.0472,0.0424,0.0403,0.0365,0.0319,0.0264,0.016,0.009,0.005,-0.0004,-0.0046,-0.0077,-0.0123,-0.0159,-0.0135,-0.0202,-0.0211,-0.0133,-0.0135,-0.0137,-0.0138,0,0,0.0487,0.0507,0.0511,0.0539,0.0518,0.0526,0.052,0.0498,0.05,0.0417,0.0408,0.0294,0.0233,0.0184,0.0095,0.0028,-0.0027,-0.0035,-0.0041,-0.0079,-0.0174,-0.0188,-0.02,-0.0076,-0.0077,-0.0077,-0.0218,0,0.0549,0.0614,0.0605,0.067,0.0705,0.0655,0.066,0.0626,0.0581,0.0548,0.0426,0.0383,0.0283,0.0256,0.017,0.0029,-0.0045,0.0017,-0.0204,-0.021,-0.0214,-0.0209,-0.0153,-0.0273,-0.0227,-0.0229,-0.023,0,0.062,0.0657,0.0741,0.0787,0.0798,0.0824,0.0837,0.0831,0.0754,0.0708,0.0631,0.0544,0.0432,0.0345,0.0118,0.0166,0.0013,-0.0105,-0.0114,-0.0166,-0.024,-0.0292,-0.0292,-0.0246,-0.0245,-0.0244,-0.0243,0,0.0699,0.0757,0.0839,0.085,0.0882,0.0912,0.0925,0.0885,0.0901,0.0816,0.0816,0.0657,0.0597,0.0388,0.0151,0.0133,-0.0094,-0.0161,-0.0321,-0.0324,-0.0339,-0.0341,-0.0322,-0.0322,-0.0322,-0.0321,-0.0321,0,0.0776,0.0835,0.0885,0.0926,0.1023,0.101,0.1093,0.1056,0.104,0.1088,0.0914,0.0916,0.0609,0.0449,0.0202,-0.007,-0.0065,-0.0299,-0.0359,-0.03,-0.0297,-0.0325,-0.0323,-0.0327,-0.0326,-0.0325,-0.0324,0,0.0845,0.0874,0.0972,0.1037,0.1068,0.1138,0.1221,0.1266,0.1225,0.1283,0.1272,0.1111,0.0899,0.0587,0.0251,0.0018,-0.0258,-0.0361,-0.0259,-0.0304,-0.0457,-0.0448,-0.0561,-0.0563,-0.0564,-0.0566,-0.0567,0,0.0884,0.0948,0.1066,0.1137,0.1175,0.1276,0.1344,0.1351,0.142,0.1425,0.1469,0.1295,0.1208,0.0698,0.0244,-0.0194,-0.0257,-0.0429,-0.0467,-0.0433,-0.0481,-0.047,-0.046,-0.0452,-0.0452,-0.0452,-0.0452,0,0.0963,0.1012,0.1094,0.1246,0.1349,0.1472,0.1583,0.1677,0.1711,0.1765,0.1822,0.1765,0.1283,0.0854,0.0241,-0.0054,-0.0358,-0.0442,-0.0443,-0.0387,-0.0338,-0.0382,-0.0374,-0.0451,-0.0451,-0.0451,-0.0451,-0.0451,0.1022,0.1101,0.1223,0.1368,0.1496,0.1666,0.1797,0.192,0.2075,0.2188,0.2114,0.2034,0.1518,0.0749,0.0203,-0.0373,-0.0352,-0.0539,-0.0536,-0.0533,-0.0483,-0.0438,-0.056,-0.056,-0.0561,-0.0561,-0.0562,0,0.1092,0.119,0.1332,0.152,0.1678,0.1731,0.1956,0.209,0.2305,0.239,0.2438,0.1984,0.1473,0.0867,0.0018,-0.0482,-0.0525,-0.0635,-0.0577,-0.0572,-0.0569,-0.0519,-0.0607,-0.0609,-0.0611,-0.0612,0,0,0.1135,0.1282,0.1366,0.1645,0.1784,0.2015,0.2163,0.2354,0.2479,0.2582,0.2543,0.2413,0.1683,0.1067,0.0368,-0.0121,-0.0228,-0.0215,-0.0118,0.0039,0.0048,-0.0449,-0.0359,0,0,0,0,0]}],[{"header":{"parameterUnit":"m.s-1","parameterCategory":2,"la1":30.2991,"la2":30.254,"lo1":-89.0895,"lo2":-89.0444,"dx":0.0017,"dy":0.0017,"nx":28,"ny":28,"refTime":"2022-11-15T09:00:00:Z","depth":"4","parameterNumber":2,"parameterNumberName":"U-component_of_CURRENTS"},"data":[0,0,0,0,0,0,0,0,0,0,0,0,0,0,0,0,0,0,0,0,0,0,0,0,0,0,0,0,0,0,0,0,0,0,0,0,0,0,0,0,0,0,0,0,0,0,0,0,0,0,0,0,0,0,0,0,0,0,0.2583,0.2584,0,0.2709,0.2711,0.2712,0.2805,0.2806,0.2808,0.2809,0.2933,0.2935,0.2937,0,0,0,0,0,0,0,0,0,0,0,0,0,0.2405,0.2408,0.2583,0.2584,0.2586,0.2709,0.2711,0.2712,0.2805,0.2807,0.2808,0.2809,0.2932,0.2935,0.2937,0,0,0,0,0,0,0,0,0,0,0,0,0,0.2499,0.2409,0.2582,0.265,0.2658,0.2709,0.2711,0.2712,0.2805,0.2807,0.2808,0.281,0.2931,0.2934,0.2938,0.2924,0,0,0.2948,0.2949,0,0,0,0,0,0,0,0,0.2493,0.2505,0.2638,0.2646,0.2654,0.2747,0.2694,0.2784,0.2804,0.2745,0.2809,0.2811,0.2871,0.288,0.2894,0.2929,0.2935,0.2948,0.295,0.2952,0.2952,0,0,0,0,0,0,0,0.2487,0.25,0.2629,0.264,0.265,0.267,0.2684,0.2711,0.2794,0.275,0.2758,0.2778,0.2875,0.2891,0.2898,0.2937,0.2948,0.2951,0.2953,0.2954,0.3134,0.3136,0,0,0,0,0,0,0.2478,0.2494,0.2625,0.2633,0.2581,0.2672,0.2688,0.2712,0.2794,0.2809,0.2776,0.2782,0.2884,0.2894,0.2903,0.3043,0.2951,0.2955,0.2957,0.3131,0.3134,0.3137,0,0,0,0,0,0,0.2473,0.2488,0.262,0.2569,0.2588,0.2673,0.2699,0.2714,0.2788,0.2814,0.2829,0.2843,0.2886,0.2898,0.2983,0.3043,0.2956,0.2959,0.3128,0.3132,0.3136,0.3227,0,0,0,0,0,0,0.2468,0.2486,0.2526,0.2568,0.259,0.2685,0.2699,0.2715,0.2796,0.2806,0.2875,0.2885,0.2888,0.2978,0.2986,0.3046,0.2962,0.3124,0.313,0.3135,0.322,0.3233,0.3245,0,0,0,0,0,0.2461,0.2498,0.2527,0.2545,0.2634,0.2687,0.2701,0.2763,0.2798,0.2836,0.2893,0.2886,0.3017,0.2983,0.2992,0.3054,0.3122,0.3128,0.3134,0.3215,0.3231,0.3244,0,0,0,0,0,0,0.2446,0.2513,0.2546,0.2605,0.2661,0.2705,0.2759,0.2794,0.2868,0.2899,0.2918,0.2932,0.3034,0.3029,0.2992,0.3122,0.3069,0.3078,0.3128,0.3143,0.3155,0.3166,0.2965,0,0,0,0,0,0.2459,0.2512,0.2568,0.2624,0.2657,0.2718,0.276,0.2803,0.2861,0.2899,0.2948,0.3003,0.3055,0.3089,0.3132,0.3196,0.3199,0.3243,0.3256,0.3266,0.3283,0.3333,0.3351,0.3158,0.3158,0.3158,0,0,0.2469,0.2517,0.2548,0.2626,0.2679,0.2734,0.2749,0.283,0.289,0.2897,0.3014,0.3056,0.3085,0.3167,0.3211,0.3178,0.3326,0.3274,0.3282,0.3294,0.3342,0.336,0.3377,0.3162,0.3161,0.3161,0,0,0.2492,0.2561,0.2605,0.2657,0.2748,0.2787,0.2822,0.2902,0.296,0.3055,0.3086,0.3167,0.3243,0.3278,0.3299,0.3403,0.3395,0.3425,0.3492,0.3541,0.3557,0.3571,0.3605,0.3621,0.3424,0.3424,0.3424,0,0.2506,0.257,0.2627,0.2682,0.2738,0.2815,0.2873,0.2936,0.3039,0.3093,0.3111,0.3261,0.3293,0.3382,0.3431,0.3432,0.3455,0.343,0.3556,0.357,0.3583,0.3614,0.3631,0.3429,0.3428,0.3428,0.3427,0,0.2542,0.2618,0.2655,0.2751,0.2814,0.2885,0.2968,0.3057,0.314,0.3196,0.3331,0.3382,0.3467,0.3494,0.3501,0.3615,0.3602,0.357,0.3514,0.3608,0.3635,0.3651,0.3436,0.3434,0.3433,0.3432,0,0,0.2507,0.2651,0.2672,0.273,0.2864,0.291,0.3031,0.3142,0.3229,0.3338,0.3446,0.3551,0.3598,0.3627,0.3651,0.3701,0.3819,0.3691,0.3691,0.3717,0.3935,0.3715,0.3711,0.3816,0.3819,0.3822,0.3918,0,0.2527,0.263,0.2706,0.2821,0.2879,0.2995,0.3095,0.3212,0.3316,0.3441,0.3524,0.3638,0.3639,0.3705,0.376,0.3818,0.3866,0.3796,0.3847,0.3849,0.3635,0.3723,0.3832,0.3929,0.3933,0.3935,0.3937,0,0.2528,0.2603,0.2712,0.2863,0.2903,0.2993,0.3169,0.3265,0.3441,0.3532,0.3656,0.3726,0.386,0.3831,0.3967,0.393,0.3953,0.3972,0.3975,0.3748,0.3657,0.3816,0.3965,0.3963,0.3961,0.3959,0.3958,0,0.245,0.2605,0.2697,0.2749,0.2927,0.302,0.313,0.3304,0.3401,0.3603,0.3705,0.3842,0.395,0.4005,0.4077,0.4042,0.42,0.4136,0.3951,0.3935,0.4063,0.4047,0.4216,0.4215,0.4215,0.4215,0.4215,0,0.2414,0.2494,0.2681,0.2727,0.2855,0.2994,0.3142,0.3276,0.3468,0.3582,0.3752,0.3849,0.4008,0.411,0.4128,0.4098,0.4241,0.3982,0.395,0.4099,0.4086,0.4074,0.4056,0.4218,0.4218,0.4217,0.4216,0,0.2309,0.2434,0.2545,0.2748,0.282,0.2913,0.3143,0.3231,0.3447,0.3605,0.3685,0.391,0.4039,0.4152,0.4261,0.4146,0.4144,0.4092,0.4275,0.4249,0.383,0.3817,0.3871,0.3865,0.3859,0.3854,0.385,0,0.226,0.2309,0.253,0.2599,0.2705,0.2864,0.2965,0.3198,0.3293,0.3596,0.3652,0.3875,0.3994,0.3969,0.4101,0.4118,0.4068,0.403,0.3898,0.3834,0.3799,0.3795,0.3789,0.3841,0.3839,0.3837,0.3836,0,0.2156,0.2262,0.2349,0.2492,0.2616,0.273,0.2902,0.2949,0.3207,0.3435,0.3532,0.3602,0.3747,0.3817,0.388,0.3874,0.403,0.3968,0.3977,0.3853,0.3797,0.3767,0.3769,0.3816,0.3819,0.3821,0.3822,0,0.2084,0.2117,0.2247,0.2353,0.249,0.2552,0.2665,0.2781,0.2904,0.3234,0.3253,0.349,0.3703,0.3693,0.3742,0.374,0.3663,0.3513,0.3545,0.3569,0.3426,0.3309,0.3164,0,0,0,0,0,0.1992,0.2008,0.2095,0.2191,0.2313,0.2403,0.2597,0.2714,0.2961,0.2948,0.3093,0.3206,0.329,0.3409,0.3344,0.3613,0.3682,0.3521,0.3526,0.3704,0.3727,0.3588,0,0,0,0,0,0,0.1928,0.1998,0.203,0.2027,0.2062,0.2179,0.2294,0.2469,0.248,0.2741,0.2805,0.3007,0.3141,0.3294,0.3279,0.3317,0.3252,0.3674,0.3665,0.3691,0.3712,0.373,0.3595,0,0,0,0,0]},{"header":{"parameterUnit":"m.s-1","parameterCategory":2,"la1":30.2991,"la2":30.254,"lo1":-89.0895,"lo2":-89.0444,"dx":0.0017,"dy":0.0017,"nx":28,"ny":28,"refTime":"2022-11-15T09:00:00:Z","depth":"4","parameterNumber":3,"parameterNumberName":"V-component_of_CURRENTS"},"data":[0,0,0,0,0,0,0,0,0,0,0,0,0,0,0,0,0,0,0,0,0,0,0,0,0,0,0,0,0,0,0,0,0,0,0,0,0,0,0,0,0,0,0,0,0,0,0,0,0,0,0,0,0,0,0,0,0,0,0.0258,0.0258,0,0.018,0.0179,0.0178,0.0127,0.0127,0.0127,0.0127,0.0008,0.0005,0.0002,0,0,0,0,0,0,0,0,0,0,0,0,0,0.0296,0.0296,0.0258,0.0258,0.0257,0.0181,0.0179,0.0178,0.0127,0.0127,0.0127,0.0127,0.0009,0.0006,0.0002,0,0,0,0,0,0,0,0,0,0,0,0,0,0.0254,0.0296,0.0259,0.0224,0.022,0.0181,0.0179,0.0178,0.0127,0.0127,0.0127,0.0127,0.001,0.0006,0.0002,-0.0021,0,0,-0.0012,-0.0014,0,0,0,0,0,0,0,0,0.0256,0.0252,0.023,0.0226,0.0222,0.0165,0.0149,0.011,0.0127,0.0161,0.0127,0.0126,0.0058,0.005,0.0034,-0.0027,-0.0032,-0.0012,-0.0015,-0.0017,-0.0018,0,0,0,0,0,0,0,0.0259,0.0255,0.0226,0.0229,0.0224,0.0189,0.0183,0.0141,0.011,0.0158,0.0154,0.0148,0.0055,0.0038,0.0031,-0.0033,-0.0012,-0.0016,-0.0019,-0.0021,-0.0125,-0.0125,0,0,0,0,0,0,0.0276,0.0258,0.0228,0.0224,0.0241,0.0189,0.0182,0.0182,0.0111,0.0101,0.0149,0.0146,0.0046,0.0036,0.0026,0.0008,-0.0017,-0.0021,-0.0024,-0.0125,-0.0125,-0.0125,0,0,0,0,0,0,0.0277,0.0275,0.0231,0.024,0.0232,0.0189,0.0189,0.0181,0.0167,0.0105,0.0093,0.0144,0.0045,0.0032,-0.0003,0.0002,-0.0023,-0.0027,-0.0124,-0.0125,-0.0125,-0.0038,0,0,0,0,0,0,0.0279,0.0276,0.0283,0.0241,0.0232,0.0219,0.0189,0.0179,0.0164,0.016,0.0097,0.0086,0.0044,0.0004,-0.0008,-0.0005,-0.0031,-0.0124,-0.0125,-0.0125,-0.004,-0.0035,-0.003,0,0,0,0,0,0.0281,0.0295,0.0284,0.028,0.0244,0.0219,0.0212,0.0178,0.0165,0.0164,0.0121,0.0088,-0.0006,0.0,-0.0013,-0.0011,-0.0124,-0.0124,-0.0125,-0.0043,-0.0036,-0.003,0,0,0,0,0,0,0.0313,0.029,0.0277,0.0283,0.0258,0.0212,0.0211,0.0185,0.0151,0.015,0.0089,0.0075,0.0044,0.0003,0.0011,-0.0043,-0.0072,-0.0074,-0.0005,0.0001,0.0006,0.0039,-0.0035,0,0,0,0,0,0.0325,0.0333,0.0298,0.0304,0.0297,0.0255,0.0242,0.022,0.0184,0.0169,0.0125,0.0076,0.0032,0.0008,-0.0035,-0.0063,-0.0107,-0.0073,-0.0067,-0.0062,-0.0046,-0.0115,-0.0114,-0.0125,-0.0125,-0.0125,0,0,0.034,0.0328,0.0332,0.0312,0.0291,0.0291,0.0247,0.0236,0.0233,0.0161,0.0146,0.0095,0.0029,-0.0001,-0.0019,-0.0034,-0.0083,-0.0063,-0.0058,-0.0044,-0.0115,-0.0114,-0.0113,-0.0125,-0.0125,-0.0125,0,0,0.0376,0.0364,0.0383,0.0367,0.0345,0.0323,0.0325,0.0285,0.0265,0.0243,0.0188,0.0143,0.0083,0.0034,0.0001,0.0007,-0.0052,-0.0009,0.0043,-0.0024,-0.0023,-0.0023,-0.0075,-0.008,-0.0007,-0.0007,-0.0007,0,0.0392,0.0412,0.0383,0.0392,0.0395,0.0345,0.0366,0.0334,0.0287,0.0275,0.0253,0.0159,0.01,0.0055,0.0057,0.0021,-0.002,0.0028,-0.0015,-0.0016,-0.0017,-0.0071,-0.0078,-0.0003,-0.0004,-0.0004,-0.0004,0,0.0436,0.0453,0.0463,0.0466,0.0464,0.0471,0.0436,0.042,0.0394,0.036,0.0317,0.0236,0.0181,0.0148,0.0106,0.0066,0.004,0.0002,-0.0025,-0.0011,-0.0069,-0.0077,0.0003,0.0001,0.0,-0.0001,0,0,0.0473,0.0492,0.0497,0.0522,0.0507,0.0515,0.051,0.0494,0.0497,0.0434,0.0428,0.0337,0.0293,0.0252,0.0181,0.0122,0.0069,0.007,0.0065,0.0031,-0.0066,-0.0069,-0.008,0.0026,0.0025,0.0024,-0.0101,0,0.0518,0.0567,0.0564,0.0618,0.0644,0.0611,0.0616,0.0592,0.056,0.0536,0.0439,0.0408,0.033,0.031,0.0236,0.0115,0.005,0.0108,-0.0085,-0.009,-0.0085,-0.0088,0.002,-0.0108,-0.011,-0.0111,-0.0112,0,0.0564,0.0594,0.0661,0.0706,0.0716,0.0743,0.0758,0.0755,0.0696,0.0662,0.0603,0.0535,0.0441,0.0374,0.0178,0.0221,0.0093,-0.0008,-0.0016,-0.0051,-0.0109,-0.0129,-0.0129,-0.0128,-0.0126,-0.0125,-0.0124,0,0.0614,0.0667,0.0734,0.0746,0.0779,0.0811,0.0828,0.0801,0.0815,0.0752,0.0754,0.0622,0.0571,0.0394,0.0193,0.0185,-0.0023,-0.007,-0.0197,-0.0199,-0.0196,-0.0195,-0.021,-0.021,-0.0209,-0.0209,-0.0209,0,0.066,0.0712,0.077,0.0803,0.0889,0.0888,0.0962,0.0939,0.0931,0.0962,0.0835,0.082,0.0577,0.0433,0.0228,0.0,-0.0004,-0.018,-0.023,-0.0157,-0.015,-0.0202,-0.02,-0.0214,-0.0213,-0.0212,-0.0211,0,0.0696,0.073,0.0816,0.0884,0.092,0.0982,0.1068,0.1103,0.1083,0.1119,0.1111,0.097,0.0776,0.0527,0.0237,0.0064,-0.0168,-0.0253,-0.0135,-0.0178,-0.031,-0.0301,-0.0404,-0.0405,-0.0406,-0.0407,-0.0408,0,0.0714,0.0766,0.0886,0.0949,0.0992,0.1087,0.1147,0.117,0.122,0.1213,0.1233,0.1079,0.0951,0.0554,0.0263,-0.0126,-0.0191,-0.0311,-0.033,-0.029,-0.033,-0.032,-0.031,-0.0409,-0.041,-0.041,-0.041,0,0.0752,0.0806,0.0875,0.1012,0.1109,0.1215,0.1314,0.1364,0.1394,0.1387,0.134,0.1136,0.0912,0.0576,0.0276,-0.001,-0.0233,-0.0323,-0.0323,-0.0342,-0.0298,-0.0334,-0.0324,-0.0414,-0.0413,-0.0413,-0.0413,0,0.0782,0.0842,0.0948,0.1066,0.1194,0.1312,0.1359,0.1423,0.1471,0.1467,0.145,0.1198,0.1056,0.0636,0.0358,0.008,-0.0008,-0.0107,-0.0121,-0.0121,-0.0013,0.0086,0.0054,0,0,0,0,0,0.08,0.0874,0.0989,0.1127,0.1254,0.1339,0.1456,0.1489,0.1537,0.1522,0.1494,0.1286,0.0878,0.0695,0.0417,0.0305,-0.0076,-0.0035,-0.0202,-0.0432,-0.0428,-0.0351,0,0,0,0,0,0,0.0816,0.0923,0.0987,0.1159,0.1262,0.1411,0.1493,0.1523,0.1517,0.1518,0.1307,0.1212,0.0811,0.1046,0.0414,0.0327,0.0179,-0.0223,-0.023,-0.0434,-0.0431,-0.0428,-0.0347,0,0,0,0,0]}]]